Zurück zum Katalog

IRIDIUM 73

AktivKommunikationPO
NORAD 25344·PAYLOAD·🇺🇸 United States

Gestartet May 17, 1998 von Vandenberg Space Force Base

Loading…

Nächste Überflüge (nächste 24 Stunden)

TLE

AktuellSource: Space-Track

Epoche: Sep 14, 2026, 14:44 UTC

1 25344U 98032C   26257.61432670  .00000358  00000-0  82967-4 0  9993
2 25344  86.4432 213.7068 0001727  88.6282 271.5122 14.52273858496504

Verfolge IRIDIUM 73 in Echtzeit mit AllMySat

Download on the App Store